Location: Peterborough
(44.3091°N, 78.3197°W)
Time: 03:52:47
(UTC-04:00)

Tiros 1 - Pass Details

Date: 02 April 2023
Orbit: 627 x 661 km, 48.4° (Epoch: 09 June)

Event Time Altitude Azimuth Distance (km) Brightness Sun altitude
Rises 09:28:00 0° 291° (WNW) 2,993 10.0 26.5°
Reaches altitude 10° 09:30:27 10° 284° (WNW) 2,077 9.3 26.9°
Maximum altitude 09:34:56 40° 216° (SW) 972 8.2 27.7°
Drops below altitude 10° 09:39:22 10° 147° (SSE) 2,058 10.7 28.4°
Sets 09:41:48 0° 140° (SE) 2,962 11.5 28.8°
